Savannah, GA

5:51 PM EST on January 22, 2018 (GMT -0500)
Savannah International

Weather History for KSAV - January, 2013

Change the Weather History Date:

Wednesday, January 9, 2013

  Actual Average Record
Temperature  
Mean Temperature 64 °F 49 °F  
Max Temperature 73 °F 60 °F 77 °F (1965)
Min Temperature 55 °F 38 °F 10 °F (1970)
Degree Days  
Heating Degree Days 1 16  
Month to date heating degree days 103 144  
Since 1 July heating degree days 722 834  
Cooling Degree Days 0 0  
Month to date cooling degree days 0 0  
Year to date cooling degree days 0 0  
Growing Degree Days 12 (Base 50)    
Moisture  
Dew Point 57 °F    
Average Humidity 81    
Maximum Humidity 93    
Minimum Humidity 68    
Precipitation  
Precipitation T in 0.11 in 1.39 in (1878)
Month to date precipitation 0.24 0.95  
Year to date precipitation 0.24 0.95  
Snow  
Snow 0.00 in 0.00 in - ()
Month to date snowfall 0.0  
Since 1 July snowfall 0.0 0.2  
Snow Depth 0.00 in    
Sea Level Pressure  
Sea Level Pressure 30.35 in    
Wind  
Wind Speed 5 mph (ENE)    
Max Wind Speed 9 mph    
Max Gust Speed 13 mph    
Visibility 10 miles    
Events      
T = Trace of Precipitation, MM = Missing Value Source: NWS Daily Summary

Daily Weather History Graph

Daily Weather History Graph

Search for Another Location

Airport or City:

Trip Planner

Search our weather history database for the weather conditions in past years. The results will help you decide how hot, cold, wet, or windy it might be!

Date:

Astronomy

Jan. 09, 2013 Rise Set
Actual Time 7:26 AM EST 5:37 PM EST
Civil Twilight 6:59 AM EST 6:04 PM EST
Nautical Twilight 6:29 AM EST 6:34 PM EST
Astronomical Twilight 5:59 AM EST 7:04 PM EST
Moon 5:04 AM EST (1/9) 3:38 PM EST (1/9)
Length of Visible Light 11h 04m
Length of Day
10h 11m
Waning Crescent, 6% of the Moon is Illuminated
Jan 9
Waning Crescent
Jan 11
New
Jan 18
First Quarter
Jan 26
Full
Feb 3
Last Quarter

Hourly Weather History & Observations

Time (EST) Temp. Dew Point Humidity Pressure Visibility Wind Dir Wind Speed Gust Speed Precip Events Conditions
12:53 AM 55.9 °F 52.0 °F 87% 30.32 in 10.0 mi NNE 4.6 mph - N/A   Overcast
1:53 AM 57.9 °F 53.1 °F 84% 30.30 in 10.0 mi ENE 6.9 mph - N/A   Overcast
2:53 AM 59.0 °F 54.0 °F 83% 30.31 in 10.0 mi NE 4.6 mph - N/A   Overcast
3:53 AM 57.9 °F 53.1 °F 84% 30.30 in 10.0 mi NNE 4.6 mph - N/A   Mostly Cloudy
4:53 AM 57.9 °F 53.1 °F 84% 30.30 in 10.0 mi NE 4.6 mph - 0.00 in   Mostly Cloudy
5:46 AM 55.4 °F 51.8 °F 88% 30.31 in 10.0 mi NNE 4.6 mph - N/A   Overcast
5:53 AM 55.9 °F 53.1 °F 90% 30.31 in 10.0 mi NNE 4.6 mph - N/A   Overcast
6:13 AM 55.4 °F 53.6 °F 94% 30.31 in 10.0 mi NNE 5.8 mph - N/A   Overcast
6:53 AM 57.9 °F 53.1 °F 84% 30.32 in 10.0 mi NNE 4.6 mph - N/A   Overcast
7:53 AM 57.9 °F 53.1 °F 84% 30.35 in 10.0 mi NE 5.8 mph - N/A   Overcast
8:19 AM 59.0 °F 53.6 °F 82% 30.35 in 10.0 mi NE 5.8 mph - N/A   Overcast
8:40 AM 60.8 °F 53.6 °F 77% 30.37 in 10.0 mi Calm Calm - N/A   Overcast
8:53 AM 61.0 °F 54.0 °F 78% 30.37 in 10.0 mi NE 4.6 mph - N/A   Overcast
9:33 AM 62.6 °F 55.4 °F 77% 30.38 in 10.0 mi ENE 4.6 mph - N/A   Mostly Cloudy
9:53 AM 64.0 °F 55.0 °F 73% 30.39 in 10.0 mi NNE 5.8 mph - N/A   Mostly Cloudy
10:53 AM 68.0 °F 57.9 °F 70% 30.39 in 10.0 mi Calm Calm - N/A   Overcast
11:11 AM 69.8 °F 60.8 °F 73% 30.38 in 10.0 mi ESE 5.8 mph - N/A   Overcast
11:41 AM 71.6 °F 60.8 °F 69% 30.37 in 10.0 mi East 4.6 mph - N/A   Overcast
11:53 AM 71.1 °F 61.0 °F 70% 30.37 in 10.0 mi East 4.6 mph - N/A   Overcast
12:53 PM 71.1 °F 62.1 °F 73% 30.35 in 10.0 mi ESE 3.5 mph - N/A   Overcast
1:53 PM 72.0 °F 62.1 °F 71% 30.34 in 10.0 mi NNE 5.8 mph - N/A   Overcast
2:40 PM 71.6 °F 62.6 °F 73% 30.33 in 10.0 mi NNE 4.6 mph - N/A   Mostly Cloudy
3:53 PM 71.1 °F 62.1 °F 73% 30.35 in 10.0 mi ENE 4.6 mph - N/A   Mostly Cloudy
4:06 PM 71.6 °F 62.6 °F 73% 30.35 in 10.0 mi East 5.8 mph - N/A   Overcast
4:29 PM 71.6 °F 62.6 °F 73% 30.35 in 10.0 mi ENE 4.6 mph - N/A   Overcast
4:53 PM 70.0 °F 62.1 °F 76% 30.35 in 10.0 mi East 6.9 mph - N/A   Overcast
5:13 PM 69.8 °F 62.6 °F 78% 30.35 in 10.0 mi ESE 5.8 mph - N/A   Mostly Cloudy
5:39 PM 68.0 °F 62.6 °F 83% 30.35 in 10.0 mi East 5.8 mph - N/A   Overcast
5:53 PM 66.9 °F 61.0 °F 81% 30.36 in 10.0 mi East 8.1 mph - N/A   Overcast
6:53 PM 64.9 °F 60.1 °F 84% 30.37 in 10.0 mi ENE 8.1 mph - N/A   Overcast
7:53 PM 62.1 °F 59.0 °F 90% 30.39 in 10.0 mi East 4.6 mph - N/A   Overcast
8:53 PM 60.1 °F 55.9 °F 86% 30.39 in 10.0 mi East 4.6 mph - N/A   Overcast
9:53 PM 59.0 °F 55.9 °F 90% 30.39 in 10.0 mi Calm Calm - N/A   Clear
10:53 PM 55.9 °F 54.0 °F 93% 30.39 in 7.0 mi Calm Calm - N/A   Scattered Clouds
11:53 PM 55.0 °F 53.1 °F 93% 30.40 in 6.0 mi Calm Calm - N/A   Scattered Clouds